Torna al catalogo

STARLINK-32826

AttivoComunicazioniVLEO
NORAD 62970·PAYLOAD·🇺🇸 United States

Lanciato Feb 11, 2025 da Vandenberg Space Force Base

Loading…

Prossimi Passaggi (prossime 24 ore)

TLE

AggiornatoSource: CelesTrak SupGP

Epoca: Sep 14, 2026, 21:41 UTC

1 62970C 25029Y   26257.90395833  .00029465  00000+0  87070-3 0  2571
2 62970  53.1586  71.5909 0001014  78.9765 331.8656 15.34370672    14

Traccia STARLINK-32826 in tempo reale con AllMySat

Download on the App Store